Date,TemperatureHighF,TemperatureAvgF,TemperatureLowF,DewpointHighF,DewpointAvgF,DewpointLowF,HumidityHigh,HumidityAvg,HumidityLow,PressureMaxIn,PressureMinIn,WindSpeedMaxMPH,WindSpeedAvgMPH,GustSpeedMaxMPH,PrecipitationSumIn
2013-1-1,54,42,33,28,24,20,73,52,31,30.24,30.12,12,2,12,0.00
2013-1-2,60,43,33,25,22,18,62,46,22,30.17,30.08,8,2,9,0.00
2013-1-3,62,50,35,24,20,15,53,33,17,30.21,30.09,7,2,10,0.00
2013-1-4,61,50,34,24,16,10,50,29,15,30.30,30.20,6,2,7,0.00
2013-1-5,63,46,34,24,19,11,56,38,14,30.30,30.20,7,2,7,0.00
2013-1-6,54,43,36,36,31,22,79,63,48,30.21,30.02,10,1,10,0.00
2013-1-7,63,46,34,35,27,21,82,53,20,30.09,29.99,28,5,29,0.00
2013-1-8,70,58,39,36,32,23,56,40,25,30.17,30.07,7,1,7,0.00
2013-1-9,71,54,43,40,34,31,67,49,24,30.19,30.02,12,2,12,0.00
2013-1-10,50,43,34,41,32,19,82,66,49,30.06,29.90,21,3,21,0.00
2013-1-11,48,38,30,24,20,17,68,51,33,30.15,30.03,14,3,14,0.00
2013-1-12,49,36,27,21,17,11,71,50,25,30.15,30.04,7,1,8,0.00
2013-1-13,49,40,28,17,15,9,56,38,20,30.15,30.04,8,2,10,0.00
2013-1-14,48,34,23,15,7,-1,59,36,14,30.32,30.14,11,2,11,0.00
2013-1-15,56,44,30,24,19,8,54,38,26,30.42,30.31,6,2,9,0.00
2013-1-16,64,43,37,29,24,22,58,48,24,30.36,30.21,5,1,5,0.00
2013-1-17,69,57,41,28,22,18,45,28,17,30.26,30.15,10,2,10,0.00
2013-1-18,70,57,40,30,23,18,45,29,17,30.23,30.15,10,2,10,0.00
2013-1-19,70,49,39,26,20,16,50,34,15,30.26,30.17,7,2,7,0.00
2013-1-20,44,43,41,20,18,16,41,37,33,30.22,30.18,7,3,7,0.00
2013-1-21,73,63,43,26,17,11,34,18,10,30.18,30.10,6,2,6,0.00
2013-1-22,76,57,43,26,18,12,37,24,11,30.18,30.10,8,2,9,0.00
2013-1-23,75,61,47,43,32,23,54,36,21,30.18,30.11,10,2,11,0.00
2013-1-24,62,52,49,52,44,37,83,72,51,30.25,30.15,4,0,6,0.00
2013-1-25,57,54,52,52,47,45,84,79,72,30.20,30.01,4,0,5,0.00
2013-1-26,62,55,51,52,49,46,85,80,66,30.02,29.94,5,1,8,0.00
2013-1-27,55,46,37,48,39,30,84,76,61,30.05,29.98,20,4,20,0.00
2013-1-28,52,41,35,33,29,24,81,64,37,30.15,30.02,17,5,18,0.00
2013-1-29,53,41,32,36,31,24,77,69,48,30.23,30.15,5,2,6,0.00
2013-1-30,65,50,38,40,34,30,74,57,34,30.35,30.21,10,2,10,0.00
2013-1-31,44,43,43,34,34,34,69,69,68,30.27,30.27,2,1,3,0.00
2013-2-1,73,63,46,38,35,31,58,37,22,30.25,30.16,12,2,12,0.00
2013-2-2,71,60,49,43,38,34,58,46,26,30.25,30.17,7,1,7,0.00
2013-2-3,68,57,49,45,43,40,74,61,38,30.20,30.05,7,1,7,0.00
2013-2-6,45,43,41,38,36,34,79,76,75,30.13,30.11,0,0,0,0.00
2013-2-7,63,49,37,44,38,32,81,68,48,30.15,30.01,0,0,0,0.00
2013-2-8,45,38,33,37,32,28,84,81,72,30.01,29.90,0,0,0,0.00
2013-2-9,48,38,30,37,31,26,84,77,56,30.06,29.92,0,0,0,0.00
2013-2-10,49,41,31,35,32,26,81,70,52,30.10,30.01,0,0,0,0.00
2013-2-11,54,44,33,34,23,10,81,50,19,30.16,30.04,0,0,0,0.00
2013-2-13,38,37,35,23,23,23,60,57,55,30.24,30.23,0,0,0,0.00
2013-2-14,71,56,41,39,30,24,62,41,19,30.23,30.12,0,0,0,0.00
2013-2-15,72,55,43,37,28,22,51,37,18,30.27,30.20,0,0,0,0.00
2013-2-16,49,46,44,22,21,20,41,37,34,30.26,30.04,0,0,0,0.00
2013-2-17,49,47,46,23,22,22,39,38,34,30.04,30.03,0,0,0,0.00
2013-2-18,47,46,45,39,38,37,75,74,73,30.01,30.00,0,0,0,0.00
2013-2-19,48,43,35,38,36,29,82,76,62,29.97,29.72,0,0,0,0.00
2013-2-20,50,39,33,36,31,28,83,75,52,29.86,29.68,0,0,0,0.00
2013-2-24,56,43,38,16,13,7,38,30,15,30.22,30.11,0,0,0,0.00
2013-2-25,40,38,37,16,15,13,41,38,36,30.24,30.21,0,0,0,0.00
2013-2-26,47,45,44,20,20,19,38,36,35,30.16,30.15,0,0,0,0.00
2013-2-28,55,52,50,25,23,22,35,32,31,30.37,30.34,0,0,0,0.00
2013-3-1,78,61,47,37,27,23,47,29,15,30.37,30.24,0,0,0,0.00
2013-3-2,81,63,50,41,28,19,45,30,12,30.31,30.15,0,0,0,0.00
2013-3-3,71,58,47,39,32,25,63,39,24,30.17,30.02,0,0,0,0.00
2013-3-4,58,48,43,44,39,34,78,72,61,30.14,30.04,0,0,0,0.00
2013-3-5,49,49,48,42,42,42,80,77,76,30.13,30.10,0,0,0,0.00
2013-3-6,59,49,44,43,40,38,81,72,50,30.17,30.04,0,0,0,0.00
2013-3-7,52,47,41,43,40,35,81,77,67,30.05,29.89,0,0,0,0.00
2013-3-8,43,41,38,37,36,32,81,81,79,29.89,29.80,0,0,0,0.00
2013-3-13,61,57,54,41,36,33,50,44,42,30.17,30.13,0,0,0,0.00
2013-3-14,58,57,56,38,37,36,51,48,46,30.15,30.14,0,0,0,0.00
2013-3-17,72,63,48,51,45,40,75,53,36,30.03,29.97,0,0,0,0.00
2013-3-18,70,54,45,50,44,38,82,69,47,30.11,30.01,0,0,0,0.00
2013-3-19,62,50,45,50,43,39,82,78,62,30.14,30.07,0,0,0,0.00
2013-3-24,56,53,51,42,39,36,59,58,56,30.02,30.00,0,0,0,0.00
2013-3-25,69,52,47,41,35,32,63,53,32,30.04,29.99,0,0,0,0.00
2013-3-26,76,59,47,48,39,36,66,50,27,30.02,29.94,0,0,0,0.00
2013-3-27,73,57,45,47,41,37,75,57,32,30.09,29.97,0,0,0,0.00
2013-3-28,76,59,44,51,43,37,79,58,27,30.12,30.05,0,0,0,0.00
2013-3-29,80,62,45,50,43,37,73,54,27,30.17,30.08,0,0,0,0.00
2013-3-30,76,62,49,50,45,41,77,57,31,30.17,30.08,0,0,0,0.00
2013-3-31,71,56,44,50,44,38,80,66,45,30.16,30.07,0,0,0,0.00
2013-4-1,65,55,48,45,44,41,79,66,46,30.19,30.09,0,0,0,0.00
2013-4-2,72,59,49,50,45,41,79,63,43,30.12,30.03,0,0,0,0.00
2013-4-3,83,63,46,51,43,39,78,54,22,30.13,30.05,0,0,0,0.00
2013-4-4,78,61,47,50,44,35,75,55,23,30.15,30.06,0,0,0,0.00
2013-4-5,68,56,47,51,46,40,79,70,50,30.13,30.03,0,0,0,0.00
2013-4-6,71,58,50,52,47,43,81,68,46,30.11,30.00,0,0,0,0.00
2013-4-7,72,58,48,51,46,41,81,68,47,30.03,29.87,0,0,0,0.00
2013-4-8,56,50,44,47,42,37,81,74,54,29.88,29.71,0,0,0,0.00
2013-4-9,70,54,39,37,29,13,80,45,12,30.07,29.86,0,0,0,0.00
2013-4-10,81,62,44,31,26,15,57,29,11,30.14,30.01,0,0,0,0.00
2013-4-11,80,61,46,45,35,28,68,41,20,30.08,29.84,0,0,0,0.00
2013-4-12,79,60,46,53,46,39,79,61,36,29.94,29.84,0,0,0,0.00
2013-4-13,75,63,50,55,48,42,78,61,44,29.95,29.87,0,0,0,0.00
2013-4-14,57,52,49,46,43,41,79,73,62,29.93,29.86,0,0,0,0.00
2013-4-15,65,53,48,48,43,40,81,71,53,29.94,29.87,0,0,0,0.00
2013-4-16,63,50,41,41,36,30,74,61,39,30.01,29.90,0,0,0,0.00
2013-4-17,70,54,39,30,22,10,63,33,13,30.18,30.01,0,0,0,0.00
2013-4-18,73,55,40,29,19,11,43,27,11,30.25,30.16,0,0,0,0.00
2013-4-19,81,62,45,32,21,12,36,23,10,30.23,30.04,0,0,0,0.00
2013-4-20,88,66,48,46,33,25,56,33,14,30.08,29.95,0,0,0,0.00
2013-4-21,87,67,50,44,38,34,57,39,16,30.08,30.01,0,0,0,0.00
2013-4-22,80,63,48,49,42,37,72,49,27,30.07,29.93,0,0,0,0.00
2013-4-23,82,63,48,51,45,40,79,57,24,30.01,29.91,0,0,0,0.00
2013-4-24,73,58,48,53,47,41,80,67,45,30.02,29.94,0,0,0,0.00
2013-4-25,67,56,48,47,43,40,77,64,48,30.15,29.99,0,0,0,0.00
2013-4-26,81,61,44,50,44,37,79,56,28,30.21,30.14,0,0,0,0.00
2013-4-27,87,67,48,50,43,37,70,47,23,30.21,30.07,0,0,0,0.00
2013-4-28,88,69,51,52,45,39,69,46,22,30.09,29.94,0,0,0,0.00
2013-4-29,88,68,51,55,47,38,72,50,26,29.97,29.85,0,0,0,0.00
2013-4-30,77,61,49,53,48,43,81,64,38,29.95,29.86,0,0,0,0.00
2013-5-1,86,66,54,52,40,18,75,46,10,30.15,29.94,0,0,0,0.00
2013-5-2,87,65,51,27,20,11,33,19,10,30.22,30.11,0,0,0,0.00
2013-5-3,92,71,53,33,22,15,31,18,10,30.15,29.89,0,0,0,0.00
2013-5-4,84,65,50,46,32,21,73,35,10,29.92,29.80,0,0,0,0.00
2013-5-5,67,57,51,46,44,42,73,62,44,30.00,29.89,0,0,0,0.00
2013-5-6,62,54,51,52,46,43,80,74,62,30.06,29.97,0,0,0,0.00
2013-5-7,66,55,48,47,44,42,80,67,46,30.11,30.03,0,0,0,0.00
2013-5-8,68,57,49,48,44,40,78,63,48,30.14,30.09,0,0,0,0.00
2013-5-9,70,57,44,53,46,38,80,66,46,30.14,30.07,0,0,0,0.00
2013-5-10,83,64,53,54,51,48,82,64,36,30.15,30.07,0,0,0,0.00
2013-5-11,95,74,54,52,47,35,73,45,14,30.16,30.07,0,0,0,0.00
2013-5-12,98,78,60,52,44,34,53,34,12,30.16,30.02,0,0,0,0.00
2013-5-13,98,79,62,50,44,39,50,32,14,30.10,30.00,0,0,0,0.00
2013-5-14,90,73,56,51,42,31,59,36,15,30.07,29.98,0,0,0,0.00
2013-5-15,83,65,50,52,45,38,70,51,24,30.09,30.01,0,0,0,0.00
2013-5-16,78,62,50,54,49,43,80,64,41,30.03,29.94,0,0,0,0.00
2013-5-17,73,61,54,54,50,47,81,67,45,30.05,29.96,0,0,0,0.00
2013-5-18,76,63,54,54,49,46,78,63,42,30.08,30.02,0,0,0,0.00
2013-5-19,83,66,52,55,50,45,77,59,34,30.04,29.95,0,0,0,0.00
2013-5-20,92,71,52,53,45,33,76,46,14,30.02,29.95,0,0,0,0.00
2013-5-21,88,70,55,56,47,40,65,45,23,30.02,29.90,0,0,0,0.00
2013-5-22,82,64,50,54,48,44,81,58,30,29.93,29.83,0,0,0,0.00
2013-5-23,75,60,53,50,46,43,72,60,39,29.99,29.88,0,0,0,0.00
2013-5-24,77,63,52,52,47,43,73,58,36,30.03,29.96,0,0,0,0.00
2013-5-25,76,61,48,50,45,41,78,59,31,30.08,30.01,0,0,0,0.00
2013-5-26,75,62,51,51,47,44,76,61,41,30.08,30.03,0,0,0,0.00
2013-5-27,79,62,50,53,48,43,79,62,37,30.05,29.93,0,0,0,0.00
2013-5-28,73,62,56,54,50,47,78,67,49,29.94,29.84,0,0,0,0.00
2013-5-29,85,67,50,57,50,44,80,59,34,29.88,29.81,0,0,0,0.00
2013-5-30,86,69,54,57,52,46,76,56,34,29.95,29.85,0,0,0,0.00
2013-5-31,89,70,53,58,53,47,80,57,34,29.96,29.90,0,0,0,0.00
2013-6-1,102,83,58,60,50,34,70,38,10,29.94,29.84,0,0,0,0.00
2013-6-2,90,72,57,61,54,49,74,56,35,29.91,29.83,0,0,0,0.00
2013-6-3,85,67,54,56,51,47,80,61,35,29.95,29.86,0,0,0,0.00
2013-6-4,82,67,56,57,52,48,78,61,35,30.03,29.94,0,0,0,0.00
2013-6-5,84,66,52,57,50,45,81,59,28,30.05,29.96,0,0,0,0.00
2013-6-6,86,68,52,58,50,43,77,56,29,30.00,29.93,0,0,0,0.00
2013-6-7,88,70,51,57,52,45,80,57,32,29.97,29.86,0,0,0,0.00
2013-6-8,89,64,54,60,52,47,80,66,34,29.96,29.86,0,0,0,0.00
2013-6-9,90,69,52,59,50,26,81,57,11,29.99,29.93,0,0,0,0.00
2013-6-10,86,67,51,54,49,40,81,57,22,30.01,29.94,0,0,0,0.00
2013-6-11,94,73,53,58,48,39,74,48,16,30.02,29.96,0,0,0,0.00
2013-6-12,85,70,56,60,54,48,79,59,40,30.07,29.98,0,0,0,0.00
2013-6-13,88,69,54,58,52,47,82,57,29,30.07,29.96,0,0,0,0.00
2013-6-14,89,69,51,57,49,40,71,52,27,29.99,29.90,0,0,0,0.00
2013-6-15,86,66,50,55,49,44,81,58,30,30.04,29.94,0,0,0,0.00
2013-6-16,87,67,48,54,48,40,78,54,26,30.08,30.01,0,0,0,0.00
2013-6-17,90,71,54,53,49,44,72,49,22,30.04,29.96,0,0,0,0.00
2013-6-18,89,71,56,56,49,44,67,48,25,29.98,29.91,0,0,0,0.00
2013-6-19,85,67,51,57,49,43,74,55,32,29.94,29.88,0,0,0,0.00
2013-6-20,88,70,52,54,47,43,71,48,22,29.96,29.88,0,0,0,0.00
2013-6-21,87,69,54,52,46,41,69,47,21,29.99,29.90,0,0,0,0.00
2013-6-22,87,69,53,55,48,42,68,50,28,29.98,29.89,0,0,0,0.00
2013-6-23,83,66,52,57,50,44,78,59,35,29.94,29.86,0,0,0,0.00
2013-6-24,77,64,55,55,51,48,80,65,45,30.01,29.89,0,0,0,0.00
2013-6-25,85,69,54,60,54,48,80,61,40,30.05,29.98,0,0,0,0.00
2013-6-26,96,78,60,63,56,51,72,51,30,30.09,30.01,0,0,0,0.00
2013-6-27,100,81,63,61,56,52,70,47,24,30.13,30.07,0,0,0,0.00
2013-6-28,100,82,64,61,54,49,62,42,19,30.11,30.00,0,0,0,0.00
2013-6-29,104,84,64,61,54,46,58,39,16,30.02,29.91,0,0,0,0.00
2013-6-30,108,86,70,63,56,48,57,39,16,29.96,29.87,0,0,0,0.00
2013-7-1,98,84,70,61,56,51,61,41,25,30.02,29.93,0,0,0,0.00
2013-7-2,100,81,68,62,55,49,63,44,24,30.08,29.99,0,0,0,0.00
2013-7-3,98,80,67,59,54,48,63,42,25,30.03,29.92,0,0,0,0.00
2013-7-4,98,80,64,59,52,43,61,42,23,29.94,29.86,0,0,0,0.00
2013-7-5,93,76,61,63,54,48,67,49,28,29.94,29.87,0,0,0,0.00
2013-7-6,93,75,60,62,56,52,77,55,27,29.92,29.85,0,0,0,0.00
2013-7-7,96,78,60,61,55,46,77,50,19,29.96,29.87,0,0,0,0.00
2013-7-8,102,81,62,56,51,44,60,39,15,30.05,29.96,0,0,0,0.00
2013-7-9,102,83,67,63,52,43,53,36,18,30.09,30.02,0,0,0,0.00
2013-7-10,88,78,70,62,57,54,59,50,38,30.07,30.00,0,0,0,0.00
2013-7-11,84,72,67,60,57,53,70,58,43,30.07,29.98,0,0,0,0.00
2013-7-12,93,71,63,62,58,55,78,66,34,30.02,29.95,0,0,0,0.00
2013-7-13,94,77,60,58,55,51,73,49,26,30.04,29.95,0,0,0,0.00
2013-7-14,96,79,66,59,55,51,63,46,24,30.02,29.93,0,0,0,0.00
2013-7-15,95,78,63,60,52,47,65,44,24,29.96,29.92,0,0,0,0.00
2013-7-16,94,75,58,49,44,32,62,38,12,30.08,29.94,0,0,0,0.00
2013-7-17,95,75,55,47,40,28,58,33,10,30.10,30.03,0,0,0,0.00
2013-7-18,96,76,59,54,44,35,57,36,13,30.08,29.97,0,0,0,0.00
2013-7-19,96,77,62,59,53,47,62,45,26,29.99,29.92,0,0,0,0.00
2013-7-20,84,71,62,66,58,52,79,64,47,29.97,29.89,0,0,0,0.00
2013-7-21,79,71,65,65,61,57,80,71,58,30.02,29.89,0,0,0,0.00
2013-7-22,90,75,64,65,61,55,82,64,42,30.06,29.99,0,0,0,0.00
2013-7-23,90,75,61,62,58,54,79,58,33,30.10,30.01,0,0,0,0.00
2013-7-24,93,75,62,63,57,53,76,56,35,30.06,29.98,0,0,0,0.00
2013-7-25,96,77,61,63,57,53,74,52,29,30.09,30.00,0,0,0,0.00
2013-7-26,86,75,65,63,58,55,70,57,44,30.16,30.06,0,0,0,0.00
2013-7-27,93,78,64,64,58,54,73,53,32,30.09,29.97,0,0,0,0.00
2013-7-28,91,73,59,61,55,50,78,55,29,29.99,29.93,0,0,0,0.00
2013-7-29,90,71,54,57,52,46,78,54,27,30.09,29.98,0,0,0,0.00
2013-7-30,89,72,56,58,53,48,78,55,29,30.17,30.08,0,0,0,0.00
2013-7-31,90,70,56,59,53,48,77,58,33,30.15,30.03,0,0,0,0.00
2013-8-1,87,68,51,54,50,45,80,57,25,30.08,29.97,0,0,0,0.00
2013-8-2,90,69,53,58,51,45,76,54,31,30.04,29.97,0,0,0,0.00
2013-8-3,90,70,51,56,51,44,77,55,26,30.06,29.99,0,0,0,0.00
2013-8-4,91,72,55,55,50,41,75,50,18,30.07,30.00,0,0,0,0.00
2013-8-5,93,73,54,52,47,38,68,44,16,30.07,30.00,0,0,0,0.00
2013-8-6,92,71,53,50,45,35,71,44,15,30.09,30.02,0,0,0,0.00
2013-8-7,89,70,53,53,44,31,65,44,14,30.13,30.04,0,0,0,0.00
2013-8-8,90,71,52,48,41,33,62,38,14,30.07,29.98,0,0,0,0.00
2013-8-9,88,69,52,53,47,42,70,49,25,30.04,29.96,0,0,0,0.00
2013-8-10,86,67,51,51,47,40,74,52,21,30.08,30.02,0,0,0,0.00
2013-8-11,90,70,52,54,49,44,74,50,21,30.05,29.97,0,0,0,0.00
2013-8-12,92,72,55,56,49,42,69,48,18,30.04,29.98,0,0,0,0.00
2013-8-13,95,75,56,57,51,44,71,48,23,30.05,29.97,0,0,0,0.00
2013-8-14,101,80,61,59,50,39,66,41,13,30.01,29.93,0,0,0,0.00
2013-8-15,100,81,65,55,50,43,65,37,19,30.04,29.98,0,0,0,0.00
2013-8-16,98,80,64,57,52,49,59,41,21,30.07,30.01,0,0,0,0.00
2013-8-17,99,80,63,56,53,50,64,42,21,30.06,29.93,0,0,0,0.00
2013-8-18,101,81,66,62,54,50,58,42,24,29.99,29.92,0,0,0,0.00
2013-8-19,94,79,67,63,58,53,63,49,33,30.02,29.95,0,0,0,0.00
2013-8-20,97,78,63,60,54,49,72,46,20,30.02,29.94,0,0,0,0.00
2013-8-21,100,80,62,54,49,43,60,38,17,30.02,29.94,0,0,0,0.00
2013-8-22,99,80,65,54,47,42,55,35,18,30.03,29.93,0,0,0,0.00
2013-8-23,99,79,63,52,47,40,55,35,17,29.98,29.86,0,0,0,0.00
2013-8-24,99,78,61,64,50,30,55,40,10,29.99,29.87,0,0,0,0.00
2013-8-25,97,78,65,64,57,51,63,50,31,30.04,29.95,0,0,0,0.00
2013-8-26,84,76,69,64,59,54,63,57,47,30.04,29.95,0,0,0,0.00
2013-8-27,97,79,67,65,59,53,68,51,33,29.97,29.88,0,0,0,0.00
2013-8-28,98,81,66,62,57,53,67,47,30,30.03,29.90,0,0,0,0.00
2013-8-29,98,81,68,69,61,54,63,52,34,30.09,30.00,0,0,0,0.00
2013-8-30,92,78,71,67,64,60,80,63,44,30.11,30.04,0,0,0,0.00
2013-8-31,91,79,70,68,65,61,83,65,45,30.09,29.99,0,0,0,0.00
2013-9-1,93,78,68,66,62,58,78,61,36,30.05,29.96,0,0,0,0.00
2013-9-2,96,78,64,65,60,56,77,56,33,30.02,29.93,0,0,0,0.00
2013-9-3,98,82,69,63,60,57,68,49,29,30.02,29.95,0,0,0,0.00
2013-9-4,100,82,68,66,59,55,65,47,28,30.04,29.96,0,0,0,0.00
2013-9-5,101,83,70,63,58,54,61,44,25,30.02,29.96,0,0,0,0.00
2013-9-6,101,82,70,59,55,52,60,42,23,30.01,29.93,0,0,0,0.00
2013-9-7,98,77,68,68,59,52,79,55,30,30.00,29.94,0,0,0,0.00
2013-9-8,94,78,63,62,55,46,76,51,21,29.97,29.86,0,0,0,0.00
2013-9-9,91,76,65,59,54,50,64,47,25,29.91,29.83,0,0,0,0.00
2013-9-10,88,72,59,59,52,48,70,52,29,30.01,29.89,0,0,0,0.00
2013-9-11,87,70,55,59,52,46,77,56,30,30.05,29.99,0,0,0,0.00
2013-9-12,92,73,57,52,47,38,71,44,16,30.02,29.92,0,0,0,0.00
2013-9-13,95,75,59,53,46,38,56,39,15,29.94,29.80,0,0,0,0.00
2013-9-14,98,78,62,55,50,46,58,41,19,29.85,29.77,0,0,0,0.00
2013-9-15,99,79,64,57,51,46,59,41,18,29.91,29.82,0,0,0,0.00
2013-9-16,99,78,63,53,49,45,57,39,17,29.94,29.85,0,0,0,0.00
2013-9-17,91,73,59,51,46,40,66,41,19,29.91,29.81,0,0,0,0.00
2013-9-18,84,66,51,55,48,41,71,54,29,29.88,29.81,0,0,0,0.00
2013-9-19,88,69,53,58,51,45,76,57,28,29.91,29.83,0,0,0,0.00
2013-9-20,82,65,54,59,54,49,82,68,45,29.95,29.89,0,0,0,0.00
2013-9-21,79,65,52,55,52,45,79,64,37,29.96,29.86,0,0,0,0.00
2013-9-22,77,63,54,51,48,44,80,61,35,29.92,29.85,0,0,0,0.00
2013-9-23,91,70,51,47,41,35,73,41,15,30.00,29.89,0,0,0,0.00
2013-9-24,89,70,55,48,41,36,57,38,16,30.03,29.93,0,0,0,0.00
2013-9-25,82,64,51,49,42,33,72,47,24,29.95,29.78,0,0,0,0.00
2013-9-26,71,58,48,48,43,36,74,59,28,29.95,29.79,0,0,0,0.00
2013-9-27,82,61,43,37,31,24,70,39,14,30.08,29.94,0,0,0,0.00
2013-9-28,86,66,50,34,27,22,41,26,10,30.13,30.04,0,0,0,0.00
2013-9-29,87,68,52,39,31,23,48,29,10,30.14,30.04,0,0,0,0.00
2013-9-30,88,67,50,48,36,28,55,36,15,30.08,29.94,0,0,0,0.00
2013-10-1,86,68,52,50,42,36,59,43,19,30.02,29.94,0,0,0,0.00
2013-10-2,80,63,49,54,47,38,75,57,30,30.03,29.94,0,0,0,0.00
2013-10-3,73,62,55,52,50,47,76,64,41,29.99,29.87,0,0,0,0.00
2013-10-4,82,61,47,48,31,17,80,44,11,30.15,29.94,0,0,0,0.00
2013-10-5,84,63,46,30,21,15,39,22,10,30.22,30.14,0,0,0,0.00
2013-10-6,88,66,50,34,22,15,35,20,10,30.19,30.05,0,0,0,0.00
2013-10-7,86,67,53,40,28,20,51,27,10,30.07,29.96,0,0,0,0.00
2013-10-8,78,61,48,50,38,26,68,47,17,30.00,29.87,0,0,0,0.00
2013-10-9,59,51,44,45,42,39,81,71,53,29.88,29.76,0,0,0,0.00
2013-10-10,64,50,39,44,39,34,83,68,45,30.05,29.85,0,0,0,0.00
2013-10-11,75,56,42,47,40,36,80,59,29,30.08,29.99,0,0,0,0.00
2013-10-12,76,59,46,47,42,38,74,56,28,30.03,29.95,0,0,0,0.00
2013-10-13,72,56,43,49,43,36,78,64,41,30.07,29.97,0,0,0,0.00
2013-10-14,80,60,44,40,35,31,79,45,18,30.09,29.99,0,0,0,0.00
2013-10-15,81,62,48,40,32,25,54,36,16,30.07,29.96,0,0,0,0.00
2013-10-16,80,61,48,35,28,20,49,32,12,30.16,30.05,0,0,0,0.00
2013-10-17,80,61,47,39,31,26,57,36,15,30.11,29.99,0,0,0,0.00
2013-10-18,84,63,47,42,33,26,59,38,14,30.08,30.01,0,0,0,0.00
2013-10-19,87,66,52,42,30,19,50,30,10,30.11,30.03,0,0,0,0.00
2013-10-20,83,63,49,44,34,28,58,38,15,30.06,29.96,0,0,0,0.00
2013-10-21,84,63,47,44,35,30,59,40,15,30.05,29.98,0,0,0,0.00
2013-10-22,88,66,52,46,34,25,53,34,10,30.07,29.96,0,0,0,0.00
2013-10-23,71,59,48,51,42,29,78,55,36,30.01,29.95,0,0,0,0.00
2013-10-24,69,57,49,51,46,42,79,70,52,30.09,29.99,0,0,0,0.00
2013-10-25,80,60,43,53,43,36,81,58,30,30.15,30.08,0,0,0,0.00
2013-10-26,89,68,53,44,35,31,46,32,15,30.16,30.04,0,0,0,0.00
2013-10-27,82,64,53,47,38,32,73,40,19,30.06,29.86,0,0,0,0.00
2013-10-28,61,52,45,49,44,39,79,72,53,29.97,29.87,0,0,0,0.00
2013-10-29,61,50,40,43,40,35,82,70,49,30.04,29.95,0,0,0,0.00
2013-10-30,69,54,41,44,39,34,81,61,32,30.09,30.02,0,0,0,0.00
2013-10-31,77,57,43,40,32,26,67,43,17,30.15,30.06,0,0,0,0.00
2013-11-1,82,61,47,37,31,28,50,36,16,30.17,30.04,0,0,0,0.00
2013-11-2,80,60,47,38,32,24,58,38,14,30.09,29.93,0,0,0,0.00
2013-11-3,69,54,42,46,40,31,75,59,38,29.97,29.87,0,0,0,0.00
2013-11-4,60,53,49,46,44,41,78,71,59,29.99,29.84,0,0,0,0.00
2013-11-5,70,54,42,42,27,14,80,43,13,30.20,29.98,0,0,0,0.00
2013-11-6,77,58,42,26,19,10,44,25,10,30.27,30.19,0,0,0,0.00
2013-11-7,82,62,49,37,23,16,42,26,10,30.21,30.09,0,0,0,0.00
2013-11-8,80,61,49,34,24,17,45,27,10,30.10,30.01,0,0,0,0.00
2013-11-9,79,59,45,34,25,15,52,31,10,30.14,30.05,0,0,0,0.00
2013-11-10,77,60,49,34,25,18,46,27,15,30.18,30.09,0,0,0,0.00
2013-11-11,81,62,49,37,30,23,49,32,15,30.18,30.09,0,0,0,0.00
2013-11-12,79,64,51,40,34,26,49,33,16,30.24,30.16,0,0,0,0.00
2013-11-13,86,66,53,41,32,30,46,31,14,30.16,30.01,0,0,0,0.00
2013-11-14,85,65,52,39,30,27,44,30,13,30.05,29.85,0,0,0,0.00
2013-11-15,62,54,47,47,42,32,73,63,43,29.85,29.74,0,0,0,0.00
2013-11-16,54,51,49,47,44,42,81,78,73,29.98,29.81,0,0,0,0.00
2013-11-17,65,51,42,46,41,36,82,69,47,30.12,29.98,0,0,0,0.00
2013-11-18,66,52,41,48,42,35,80,69,48,30.18,30.08,0,0,0,0.00
2013-11-19,57,52,49,47,44,41,80,74,63,30.12,29.99,0,0,0,0.00
2013-11-20,56,52,48,47,45,41,81,75,65,30.01,29.94,0,0,0,0.00
2013-11-21,56,52,48,50,46,43,83,82,79,29.94,29.89,0,0,0,0.00
2013-11-22,54,45,38,43,38,34,84,79,56,29.99,29.88,0,0,0,0.00
2013-11-23,58,45,36,41,36,31,84,71,51,30.11,29.98,0,0,0,0.00
2013-11-24,61,47,38,39,35,32,81,66,41,30.21,30.11,0,0,0,0.00
2013-11-25,68,51,39,40,35,32,76,58,29,30.27,30.19,0,0,0,0.00
2013-11-26,73,55,44,39,34,31,65,48,25,30.25,30.12,0,0,0,0.00
2013-11-27,69,55,44,39,34,30,59,46,27,30.12,29.95,0,0,0,0.00
2013-11-28,65,52,42,37,32,30,63,49,31,30.11,29.94,0,0,0,0.00
2013-11-29,61,51,44,49,39,31,80,66,37,30.22,30.09,0,0,0,0.00
2013-11-30,70,55,45,46,41,35,78,61,35,30.22,30.12,0,0,0,0.00
2013-12-1,73,60,50,39,34,30,51,40,24,30.28,30.17,4,0,4,0.00
2013-12-2,55,48,45,31,30,28,57,49,39,30.16,29.94,0,0,0,0.00
2013-12-3,64,52,42,45,36,28,76,58,29,29.95,29.76,0,0,0,0.00
2013-12-4,56,46,37,43,32,20,78,59,27,29.95,29.76,0,0,0,0.00
2013-12-5,54,42,34,34,30,26,78,65,36,30.07,29.92,0,0,0,0.00
2013-12-6,54,42,33,36,31,27,77,65,45,30.14,30.06,0,0,0,0.00
2013-12-7,46,41,36,40,35,29,83,77,69,30.09,29.98,0,0,0,0.00
2013-12-8,51,39,33,37,31,26,84,73,52,30.15,30.05,0,0,0,0.00
2013-12-9,55,38,28,26,19,7,79,52,19,30.27,30.14,0,0,0,0.00
2013-12-10,61,41,26,22,16,9,63,42,14,30.24,30.09,0,0,0,0.00
2013-12-11,66,48,34,26,19,14,51,35,14,30.18,30.10,0,0,0,0.00
2013-12-12,67,49,38,30,24,20,62,40,19,30.21,30.11,0,0,0,0.00
2013-12-13,62,46,35,34,28,25,67,51,30,30.22,30.12,0,0,0,0.00
2013-12-14,69,50,39,29,23,18,54,37,18,30.30,30.19,0,0,0,0.00
2013-12-15,74,53,40,32,24,19,47,34,14,30.27,30.14,0,0,0,0.00
2013-12-16,81,60,48,37,30,26,44,34,15,30.20,30.13,0,0,0,0.00
2013-12-17,81,62,51,43,32,29,50,34,16,30.19,30.04,0,0,0,0.00
2013-12-18,72,57,44,39,32,28,72,40,21,30.04,29.87,0,0,0,0.00
2013-12-19,49,46,39,42,39,33,81,76,70,29.87,29.72,0,0,0,0.00
2013-12-20,58,44,34,39,32,28,83,66,40,29.94,29.75,0,0,0,0.00
2013-12-21,57,44,37,41,35,31,81,71,51,30.06,29.91,0,0,0,0.00
2013-12-22,67,49,35,40,33,29,79,59,33,30.27,30.06,0,0,0,0.00
2013-12-23,69,54,43,37,33,30,60,47,27,30.32,30.24,0,0,0,0.00
2013-12-24,75,60,45,38,32,28,53,36,19,30.23,30.13,0,0,0,0.00
2013-12-25,72,54,44,34,26,21,53,36,18,30.27,30.16,0,0,0,0.00
2013-12-26,73,56,42,29,18,14,40,25,11,30.22,30.12,0,0,0,0.00
2013-12-27,77,57,44,26,17,11,34,22,10,30.19,30.09,0,0,0,0.00
2013-12-28,72,56,43,29,20,15,37,27,12,30.09,29.95,0,0,0,0.00
2013-12-29,69,52,42,25,16,11,37,25,12,30.17,30.01,0,0,0,0.00
2013-12-30,71,51,39,24,14,7,35,24,10,30.26,30.16,0,0,0,0.00
2013-12-31,72,53,42,25,18,15,36,26,12,30.20,30.09,0,0,0,0.00
2014-1-1,76,56,42,29,21,16,40,28,11,30.14,30.08,0,0,0,0.00
2014-1-2,76,58,46,34,26,23,44,32,17,30.14,30.04,0,0,0,0.00